• în România
  • Lista ţărilor
  • Pe 7 zile
  • Temperatura apei
  • Hartă satelitară
  • Meteo pe hartă
  • Widget-uri
  • user-avatar
    Intrare

    Meteo pe oră la Naftalan

    Astăzi, 18 Octombrie, Miercuri

    Timp Temperatura Precipitaţii Vânt Presiune Umiditate
    00:00 +15°C° 0 mm 5 m/s 768 mmHg 70%
    01:00 +14°C° 0 mm 5 m/s 768 mmHg 70%
    02:00 +14°C° 0 mm 4 m/s 768 mmHg 70%
    03:00 +14°C° 0 mm 3 m/s 768 mmHg 61%
    04:00 +14°C° 0 mm 3 m/s 768 mmHg 60%
    05:00 +14°C° 0 mm 2 m/s 769 mmHg 59%
    06:00 +14°C° 0 mm 2 m/s 769 mmHg 59%
    07:00 +16°C° 0 mm 2 m/s 769 mmHg 54%
    08:00 +18°C° 0 mm 2 m/s 769 mmHg 50%
    09:00 +20°C° 0 mm 1 m/s 770 mmHg 45%
    10:00 +20°C° 0 mm 2 m/s 770 mmHg 44%
    11:00 +21°C° 0 mm 2 m/s 770 mmHg 42%
    12:00 +23°C° 0 mm 2 m/s 770 mmHg 40%
    13:00 +22°C° 0 mm 3 m/s 770 mmHg 42%
    14:00 +22°C° 0 mm 4 m/s 770 mmHg 44%
    15:00 +22°C° 0 mm 4 m/s 770 mmHg 46%
    16:00 +21°C° 0 mm 5 m/s 770 mmHg 53%
    17:00 +20°C° 0 mm 5 m/s 770 mmHg 60%
    18:00 +17°C° 0 mm 5 m/s 771 mmHg 67%
    19:00 +17°C° 0 mm 5 m/s 771 mmHg 69%
    20:00 +17°C° 0 mm 5 m/s 771 mmHg 71%
    21:00 +17°C° 0 mm 6 m/s 771 mmHg 73%
    22:00 +16°C° 0 mm 5 m/s 771 mmHg 73%
    23:00 +16°C° 0 mm 5 m/s 771 mmHg 72%

    Mâine, 19 Octombrie, Joi

    Timp Temperatura Precipitaţii Vânt Presiune Umiditate
    00:00 +16°C° 0 mm 5 m/s 771 mmHg 72%
    01:00 +16°C° 0 mm 5 m/s 771 mmHg 73%
    02:00 +16°C° 0 mm 5 m/s 771 mmHg 74%
    03:00 +16°C° 0 mm 5 m/s 771 mmHg 76%
    04:00 +16°C° 0,1 mm 5 m/s 771 mmHg 76%
    05:00 +17°C° 0,1 mm 4 m/s 771 mmHg 77%
    06:00 +17°C° 0,1 mm 4 m/s 770 mmHg 78%
    07:00 +18°C° 0,2 mm 4 m/s 770 mmHg 76%
    08:00 +18°C° 0,2 mm 4 m/s 770 mmHg 74%
    09:00 +19°C° 0,2 mm 4 m/s 770 mmHg 72%
    10:00 +20°C° 0,1 mm 4 m/s 770 mmHg 67%
    11:00 +20°C° 0,1 mm 3 m/s 770 mmHg 63%
    12:00 +21°C° 0,1 mm 3 m/s 769 mmHg 58%
    13:00 +21°C° 0,1 mm 3 m/s 769 mmHg 60%
    14:00 +22°C° 0,1 mm 4 m/s 768 mmHg 61%
    15:00 +22°C° 0,1 mm 4 m/s 768 mmHg 62%
    16:00 +21°C° 0 mm 4 m/s 768 mmHg 68%
    17:00 +20°C° 0 mm 4 m/s 768 mmHg 73%
    18:00 +19°C° 0 mm 4 m/s 768 mmHg 79%
    19:00 +19°C° 0 mm 4 m/s 768 mmHg 80%
    20:00 +18°C° 0 mm 4 m/s 768 mmHg 82%
    21:00 +18°C° 0 mm 3 m/s 768 mmHg 83%
    22:00 +18°C° 0 mm 3 m/s 768 mmHg 84%
    23:00 +17°C° 0 mm 2 m/s 767 mmHg 85%

    Poimâine, 20 Octombrie, Vineri

    Timp Temperatura Precipitaţii Vânt Presiune Umiditate
    00:00 +17°C° 0 mm 2 m/s 767 mmHg 86%
    01:00 +17°C° 0 mm 2 m/s 767 mmHg 87%
    02:00 +18°C° 0 mm 1 m/s 767 mmHg 88%
    03:00 +16°C° 0 mm 1 m/s 766 mmHg 88%
    04:00 +16°C° 0 mm 2 m/s 766 mmHg 87%
    05:00 +16°C° 0 mm 2 m/s 766 mmHg 86%
    06:00 +16°C° 0 mm 2 m/s 766 mmHg 85%
    07:00 +17°C° 0 mm 2 m/s 766 mmHg 76%
    08:00 +18°C° 0 mm 2 m/s 766 mmHg 68%
    09:00 +20°C° 0 mm 2 m/s 767 mmHg 59%
    10:00 +21°C° 0 mm 2 m/s 766 mmHg 54%
    11:00 +23°C° 0 mm 2 m/s 766 mmHg 50%
    12:00 +24°C° 0 mm 2 m/s 765 mmHg 45%
    13:00 +24°C° 0 mm 2 m/s 765 mmHg 44%
    14:00 +25°C° 0 mm 1 m/s 765 mmHg 42%
    15:00 +25°C° 0 mm 1 m/s 765 mmHg 41%
    16:00 +24°C° 0 mm 2 m/s 765 mmHg 48%
    17:00 +21°C° 0 mm 2 m/s 765 mmHg 55%
    18:00 +20°C° 0 mm 3 m/s 765 mmHg 62%
    19:00 +19°C° 0 mm 2 m/s 765 mmHg 67%
    20:00 +19°C° 0 mm 2 m/s 765 mmHg 72%
    21:00 +18°C° 0 mm 2 m/s 766 mmHg 77%
    22:00 +19°C° 0 mm 1 m/s 766 mmHg 78%
    23:00 +19°C° 0 mm 1 m/s 765 mmHg 80%

    21 Octombrie, Sâmbătă

    Timp Temperatura Precipitaţii Vânt Presiune Umiditate
    00:00 +18°C° 0 mm 1 m/s 765 mmHg 81%
    01:00 +18°C° 0 mm 1 m/s 765 mmHg 81%
    02:00 +16°C° 0 mm 0 m/s 765 mmHg 81%
    03:00 +16°C° 0 mm 0 m/s 765 mmHg 81%
    04:00 +16°C° 0 mm 1 m/s 765 mmHg 81%
    05:00 +16°C° 0 mm 1 m/s 765 mmHg 80%
    06:00 +16°C° 0 mm 1 m/s 765 mmHg 80%
    07:00 +19°C° 0 mm 1 m/s 765 mmHg 73%
    08:00 +20°C° 0 mm 1 m/s 765 mmHg 66%
    09:00 +21°C° 0 mm 2 m/s 765 mmHg 60%
    10:00 +23°C° 0 mm 2 m/s 765 mmHg 55%
    11:00 +24°C° 0 mm 2 m/s 764 mmHg 50%
    12:00 +25°C° 0 mm 2 m/s 764 mmHg 46%
    13:00 +25°C° 0 mm 2 m/s 763 mmHg 46%
    14:00 +25°C° 0 mm 3 m/s 763 mmHg 45%
    15:00 +25°C° 0 mm 3 m/s 763 mmHg 45%
    16:00 +24°C° 0 mm 3 m/s 763 mmHg 55%
    17:00 +21°C° 0 mm 4 m/s 763 mmHg 65%
    18:00 +20°C° 0 mm 4 m/s 763 mmHg 75%
    19:00 +20°C° 0 mm 4 m/s 763 mmHg 77%
    20:00 +19°C° 0 mm 3 m/s 764 mmHg 79%
    21:00 +19°C° 0 mm 3 m/s 764 mmHg 81%
    22:00 +18°C° 0 mm 3 m/s 764 mmHg 81%
    23:00 +18°C° 0 mm 2 m/s 763 mmHg 81%

    22 Octombrie, Duminică

    Timp Temperatura Precipitaţii Vânt Presiune Umiditate
    00:00 +18°C° 0 mm 2 m/s 763 mmHg 81%
    01:00 +19°C° 0 mm 1 m/s 763 mmHg 82%
    02:00 +18°C° 0 mm 1 m/s 763 mmHg 82%
    03:00 +18°C° 0 mm 1 m/s 764 mmHg 83%
    04:00 +16°C° 0 mm 0 m/s 764 mmHg 82%
    05:00 +16°C° 0 mm 0 m/s 764 mmHg 81%
    06:00 +15°C° 0 mm 0 m/s 765 mmHg 80%
    07:00 +17°C° 0,1 mm 0 m/s 765 mmHg 74%
    08:00 +18°C° 0,1 mm 0 m/s 765 mmHg 68%
    09:00 +22°C° 0,1 mm 1 m/s 766 mmHg 61%
    10:00 +23°C° 0,1 mm 2 m/s 766 mmHg 58%
    11:00 +22°C° 0,1 mm 4 m/s 766 mmHg 55%
    12:00 +23°C° 0,1 mm 5 m/s 766 mmHg 52%
    13:00 +22°C° 0 mm 7 m/s 766 mmHg 56%
    14:00 +21°C° 0 mm 8 m/s 766 mmHg 60%
    15:00 +19°C° 0 mm 10 m/s 766 mmHg 64%
    16:00 +18°C° 0,1 mm 10 m/s 767 mmHg 67%
    17:00 +17°C° 0,1 mm 11 m/s 767 mmHg 70%
    18:00 +16°C° 0,1 mm 11 m/s 768 mmHg 74%
    19:00 +14°C° 0,2 mm 11 m/s 769 mmHg 73%
    20:00 +14°C° 0,2 mm 11 m/s 769 mmHg 73%
    21:00 +14°C° 0,2 mm 10 m/s 769 mmHg 73%
    22:00 +14°C° 0,1 mm 10 m/s 769 mmHg 72%
    23:00 +15°C° 0,1 mm 9 m/s 769 mmHg 72%

    23 Octombrie, Luni

    Timp Temperatura Precipitaţii Vânt Presiune Umiditate
    00:00 +13°C° 0,1 mm 9 m/s 769 mmHg 71%
    01:00 +13°C° 0,1 mm 8 m/s 769 mmHg 71%
    02:00 +13°C° 0,1 mm 8 m/s 769 mmHg 71%
    03:00 +14°C° 0,1 mm 7 m/s 769 mmHg 71%
    04:00 +14°C° 0,1 mm 7 m/s 769 mmHg 71%
    05:00 +14°C° 0,1 mm 6 m/s 769 mmHg 72%
    06:00 +14°C° 0,1 mm 6 m/s 769 mmHg 72%
    07:00 +15°C° 0 mm 5 m/s 769 mmHg 70%
    08:00 +15°C° 0 mm 5 m/s 769 mmHg 69%
    09:00 +17°C° 0 mm 4 m/s 769 mmHg 67%
    10:00 +17°C° 0 mm 4 m/s 769 mmHg 66%
    11:00 +18°C° 0 mm 4 m/s 768 mmHg 65%
    12:00 +18°C° 0 mm 4 m/s 768 mmHg 64%
    13:00 +18°C° 0 mm 3 m/s 767 mmHg 65%
    14:00 +18°C° 0 mm 3 m/s 767 mmHg 66%
    15:00 +18°C° 0 mm 2 m/s 766 mmHg 67%
    16:00 +17°C° 0 mm 2 m/s 767 mmHg 70%
    17:00 +17°C° 0 mm 2 m/s 767 mmHg 72%
    18:00 +16°C° 0 mm 2 m/s 767 mmHg 75%
    19:00 +16°C° 0 mm 2 m/s 767 mmHg 75%
    20:00 +16°C° 0 mm 2 m/s 767 mmHg 75%
    21:00 +16°C° 0 mm 2 m/s 767 mmHg 76%
    22:00 +16°C° 0 mm 2 m/s 767 mmHg 75%
    23:00 +16°C° 0 mm 2 m/s 767 mmHg 74%
    Arată mai mult